Simultaneous Nadir Overpasses (SNOs) Predictions

Prediction of SNOs between AURA and NPP Satellite Orbit:

Table of predicted SNOs for the next 14.0 days since TLE Epoch: 12/14/2024
Index Date (AURA) Time (AURA) Lat,Lon (AURA) SZA (AURA ) Date (NPP) Time (NPP) Lat,Lon (NPP) SZA (NPP ) Distance(km) Time Diff (sec)
1 12/15/2024 15:57:00 -80.94, 35.66 67.95 12/15/2024 15:56:44 -80.95, 35.79 67.96 2.15 16
2 12/15/2024 16:46:19 80.99,-155.98 111.96 12/15/2024 16:47:26 80.99,-155.91 111.90 1.36 67
3 12/18/2024 03:10:22 -80.91,-133.14 67.76 12/18/2024 03:09:16 -80.92,-133.00 67.73 2.61 66
4 12/18/2024 03:59:41 80.96, 35.19 112.16 12/18/2024 03:59:58 80.96, 35.26 112.14 1.29 17
5 12/20/2024 15:13:00 80.93,-133.46 112.29 12/20/2024 15:12:29 80.93,-133.64 112.33 3.31 31
6 12/20/2024 16:02:20 -80.97, 34.69 67.79 12/20/2024 16:03:12 -80.97, 34.59 67.80 1.78 52
7 12/23/2024 03:15:38 -80.96,-133.76 67.73 12/23/2024 03:15:42 -80.96,-133.61 67.76 2.82 4
8 12/25/2024 14:28:55 -80.93, 57.62 67.70 12/25/2024 14:28:13 -80.94, 57.77 67.69 2.81 42
9 12/25/2024 15:18:14 80.98,-134.10 112.22 12/25/2024 15:18:55 80.98,-134.07 112.19 0.55 41



Historial Predications of SNOs between AURA and NPP
